{"data":{"norad_id":64302,"epoch":"2026-09-20T09:53:30.403680Z","epoch_age_seconds":145164,"freshness":"FRESH","line1":"1 64302U 25123M   26263.41215745  .00011066  00000+0  25268-3 0  9995","line2":"2 64302  70.0027 358.6298 0002955 234.7921 125.2984 15.43071770 72402","mean_motion":15.4307177,"eccentricity":0.0002955,"inclination_deg":70.0027,"raan_deg":358.6298,"arg_perigee_deg":234.7921,"mean_anomaly_deg":125.2984,"bstar":0.00025268,"rev_number":7240,"period_min":93.320351521952,"perigee_km":435.03580580546,"apogee_km":439.06358114131,"semimajor_km":6815.1866934734,"source":"CELESTRAK","updated_at":"2026-09-21T09:00:35.307134Z"}}